FW5697 Weather Reports


Display with metric or nautical units.
time (UTC)temp
F
wind
direction
speed
MPH
gust
MPH
rain 1hr
in
rain 24hr
in
rain mn
in
humidity
%
barometer
mb
20260508151527 65 0 0.0 2.0 0.00 0.24 0.00 76 1017.4
20260508150028 64 79 0.0 3.0 0.00 0.24 0.00 77 1017.5
20260508144527 63 148 0.0 3.0 0.00 0.28 0.00 78 1017.5
20260508143045 63 0 0.0 3.0 0.00 0.28 0.00 79 1017.8
20260508141530 62 0 0.0 2.0 0.00 0.28 0.00 79 1017.6
20260508140030 61 0 0.0 4.0 0.00 0.28 0.00 81 1017.7
20260508134534 60 23 1.0 4.0 0.00 0.86 0.00 81 1017.9
20260508133029 60 32 1.0 4.0 0.00 0.86 0.00 83 1017.8
20260508131529 59 0 0.0 2.0 0.00 0.86 0.00 86 1017.7
20260508130027 58 0 0.0 2.0 0.00 0.86 0.00 87 1017.5
20260508124529 58 0 0.0 2.0 0.00 2.05 0.00 89 1017.5
20260508123028 57 0 0.0 3.0 0.00 2.05 0.00 89 1017.5
20260508121527 56 39 1.0 3.0 0.00 2.05 0.00 90 1017.2
20260508120028 55 0 0.0 0.0 0.00 2.05 0.00 93 1017.2
20260508114528 55 0 0.0 0.0 0.00 2.93 0.00 93 1016.7
20260508113028 55 0 0.0 0.0 0.00 2.93 0.00 94 1016.2
20260508111528 54 0 0.0 0.0 0.00 2.93 0.00 94 1015.9
20260508110033 54 0 0.0 0.0 0.00 2.93 0.00 95 1015.8
20260508104526 54 0 0.0 0.0 0.00 2.94 0.00 95 1015.1
20260508103038 54 0 0.0 0.0 0.00 2.94 0.00 95 1015.1
20260508101526 54 0 0.0 0.0 0.00 2.94 0.00 94 1015.0
20260508100032 54 0 0.0 0.0 0.00 2.94 0.00 94 1014.9
20260508094528 54 0 0.0 0.0 0.00 3.11 0.00 94 1014.8
20260508093036 55 0 0.0 0.0 0.00 3.11 0.00 93 1014.5
20260508091530 55 0 0.0 0.0 0.00 3.11 0.00 93 1014.6
20260508090036 56 0 0.0 0.0 0.00 3.11 0.00 93 1014.3
20260508084528 56 0 0.0 0.0 0.00 3.12 0.00 93 1014.4
20260508083030 56 0 0.0 0.0 0.00 3.12 0.00 93 1014.4
20260508081528 56 0 0.0 0.0 0.00 3.12 0.00 93 1014.2
20260508080029 56 0 0.0 0.0 0.00 3.12 0.00 92 1013.9
20260508074534 57 0 0.0 0.0 0.00 3.17 0.00 93 1014.0
20260508073030 57 0 0.0 0.0 0.00 3.17 0.00 92 1014.0
20260508071533 57 0 0.0 0.0 0.00 3.17 0.00 92 1014.4
20260508070030 57 0 0.0 0.0 0.00 3.17 0.00 92 1014.5
20260508064535 58 0 0.0 0.0 0.00 3.26 0.00 92 1014.6
20260508063030 58 0 0.0 0.0 0.00 3.26 0.00 93 1014.4
20260508061528 58 0 0.0 0.0 0.00 3.26 0.00 94 1014.5
20260508060033 58 0 0.0 0.0 0.00 3.26 0.00 93 1014.5
20260508054605 58 0 0.0 0.0 0.00 3.42 0.00 92 1014.8
20260508053043 59 0 0.0 0.0 0.00 3.42 0.00 92 1014.9
20260508051527 59 0 0.0 0.0 0.00 3.42 0.00 91 1014.7
20260508050030 59 0 0.0 0.0 0.00 3.42 0.00 90 1015.0
20260508044529 59 0 0.0 0.0 0.00 3.45 0.00 90 1014.8
20260508043035 60 0 0.0 0.0 0.00 3.45 0.00 89 1014.6
20260508041529 60 0 0.0 0.0 0.00 3.45 0.00 88 1014.6
20260508040032 61 0 0.0 0.0 0.00 3.45 0.00 87 1014.7
20260508034535 61 0 0.0 1.0 0.00 3.48 3.45 86 1014.6
20260508033033 61 0 0.0 0.0 0.00 3.48 3.45 86 1014.6
20260508031533 62 0 0.0 0.0 0.00 3.48 3.45 86 1014.4
20260508030030 62 0 0.0 0.0 0.00 3.48 3.45 84 1014.4
20260508024527 63 0 0.0 0.0 0.00 3.60 3.45 83 1014.0
20260508023027 63 0 0.0 0.0 0.00 3.60 3.45 82 1014.1
20260508021528 64 0 0.0 0.0 0.00 3.60 3.45 80 1014.2
20260508020031 65 0 0.0 1.0 0.00 3.60 3.45 79 1013.9
20260508014535 65 213 0.0 2.0 0.00 3.60 3.45 78 1013.7
20260508013028 65 0 0.0 5.0 0.00 3.60 3.45 79 1013.6
20260508011526 65 0 0.0 0.0 0.00 3.60 3.45 83 1013.5
20260508010044 66 0 0.0 1.0 0.00 3.60 3.45 82 1013.3
20260508004532 66 64 0.0 3.0 0.00 3.60 3.45 83 1013.1
20260508003027 67 0 0.0 3.0 0.00 3.60 3.45 82 1013.0
20260508001526 68 355 1.0 4.0 0.00 3.60 3.45 80 1012.8
20260508000027 69 143 1.0 5.0 0.00 3.60 3.45 80 1012.6
20260507234528 70 0 0.0 5.0 0.00 3.60 3.45 78 1012.5
20260507233030 71 355 1.0 5.0 0.00 3.60 3.45 77 1012.3
20260507231528 72 292 1.0 3.0 0.00 3.60 3.45 76 1012.1
20260507230038 73 34 1.0 6.0 0.00 3.60 3.45 74 1012.1
20260507224530 74 0 1.0 8.0 0.00 3.60 3.45 74 1011.8
20260507223032 72 207 1.0 7.0 0.00 3.60 3.45 76 1011.8
20260507221529 74 159 2.0 8.0 0.00 3.60 3.45 73 1011.6
20260507220029 74 168 1.0 6.0 0.00 3.60 3.45 74 1011.4
20260507214530 74 163 1.0 6.0 0.00 3.60 3.45 74 1011.6
20260507213030 74 112 4.0 11.0 0.00 3.60 3.45 73 1011.7
20260507211537 74 0 1.0 9.0 0.00 3.60 3.45 75 1011.5
20260507210027 74 309 4.0 10.0 0.00 3.60 3.45 74 1011.5
20260507204531 73 68 3.0 7.0 0.00 3.60 3.45 77 1011.3
20260507203033 73 101 2.0 8.0 0.00 3.60 3.45 78 1011.3
20260507201527 72 191 4.0 9.0 0.00 3.60 3.45 78 1011.3
20260507200028 73 109 3.0 16.0 0.00 3.60 3.45 77 1011.5
20260507194531 74 0 2.0 11.0 0.00 3.60 3.45 76 1011.6
20260507193033 74 248 4.0 12.0 0.00 3.60 3.45 76 1011.5
20260507191530 74 0 1.0 8.0 0.00 3.60 3.45 78 1011.2
20260507190028 74 172 2.0 7.0 0.00 3.60 3.45 78 1011.5
20260507184528 74 33 2.0 8.0 0.00 3.60 3.45 78 1011.5
20260507183041 74 194 2.0 9.0 0.00 3.60 3.45 78 1011.4
20260507181530 74 109 4.0 9.0 0.00 3.60 3.45 78 1011.5
20260507180032 72 272 2.0 7.0 0.00 3.60 3.45 82 1011.5
20260507174530 72 201 2.0 6.0 0.00 3.60 3.45 83 1011.7
20260507173030 71 185 2.0 7.0 0.00 3.60 3.45 87 1011.6
20260507171529 70 180 1.0 9.0 0.00 3.60 3.45 89 1011.9
20260507170028 69 0 1.0 4.0 0.00 3.60 3.45 93 1012.1
20260507164531 68 196 3.0 7.0 0.00 3.60 3.45 93 1011.9
20260507163027 67 198 1.0 6.0 0.12 3.60 3.45 96 1011.9
20260507161539 67 207 0.0 5.0 0.22 3.60 3.45 98 1012.0
20260507160040 67 180 0.0 3.0 0.24 3.60 3.45 98 1011.8
20260507154531 66 207 1.0 2.0 0.26 3.60 3.45 97 1011.7
20260507153031 66 0 0.0 3.0 0.13 3.46 3.31 97 1011.4